TimeCDT,TemperatureF,Dew PointF,Humidity,Sea Level PressureIn,VisibilityMPH,Wind Direction,Wind SpeedMPH,Gust SpeedMPH,PrecipitationIn,Events,Conditions,WindDirDegrees,DateUTC
12:15 AM,26.4,14.9,62,30.19,10.0,West,8.1,-,N/A,,Clear,270,2013-04-02 05:15:00
12:35 AM,26.6,15.8,64,30.19,10.0,West,9.2,-,N/A,,Clear,280,2013-04-02 05:35:00
1:15 AM,26.6,15.8,64,30.20,10.0,West,9.2,-,N/A,,Clear,270,2013-04-02 06:15:00
1:35 AM,27.0,15.8,63,30.20,10.0,WNW,6.9,-,N/A,,Clear,290,2013-04-02 06:35:00
1:55 AM,26.2,15.8,65,30.20,10.0,West,8.1,-,N/A,,Clear,280,2013-04-02 06:55:00
2:15 AM,26.4,15.8,64,30.20,10.0,West,8.1,-,N/A,,Clear,280,2013-04-02 07:15:00
2:35 AM,26.4,16.3,66,30.19,10.0,West,9.2,-,N/A,,Clear,280,2013-04-02 07:35:00
2:55 AM,26.2,16.5,67,30.20,10.0,West,9.2,-,N/A,,Clear,270,2013-04-02 07:55:00
3:15 AM,26.4,16.5,66,30.19,10.0,West,11.5,-,N/A,,Clear,280,2013-04-02 08:15:00
3:35 AM,26.6,16.5,66,30.19,10.0,WNW,10.4,-,N/A,,Clear,290,2013-04-02 08:35:00
3:55 AM,26.6,16.5,66,30.19,10.0,WNW,10.4,-,N/A,,Clear,290,2013-04-02 08:55:00
4:15 AM,26.6,16.2,65,30.19,10.0,WNW,9.2,-,N/A,,Clear,290,2013-04-02 09:15:00
4:35 AM,26.6,16.2,65,30.20,10.0,WNW,10.4,-,N/A,,Clear,290,2013-04-02 09:35:00
4:55 AM,25.7,16.7,69,30.20,10.0,WNW,9.2,-,N/A,,Clear,290,2013-04-02 09:55:00
5:15 AM,25.7,16.5,68,30.20,10.0,WNW,8.1,-,N/A,,Clear,290,2013-04-02 10:15:00
5:35 AM,24.8,16.5,71,30.21,10.0,West,6.9,-,N/A,,Clear,280,2013-04-02 10:35:00
5:55 AM,24.4,16.5,72,30.21,10.0,West,5.8,-,N/A,,Clear,280,2013-04-02 10:55:00
6:15 AM,24.4,16.3,71,30.22,10.0,West,4.6,-,N/A,,Clear,280,2013-04-02 11:15:00
6:35 AM,24.6,16.3,71,30.22,10.0,West,6.9,-,N/A,,Clear,280,2013-04-02 11:35:00
6:55 AM,25.3,16.3,69,30.23,10.0,West,8.1,-,N/A,,Clear,280,2013-04-02 11:55:00
7:15 AM,25.9,16.7,68,30.23,10.0,West,8.1,-,N/A,,Clear,280,2013-04-02 12:15:00
7:35 AM,27.0,17.1,66,30.24,10.0,West,9.2,-,N/A,,Clear,280,2013-04-02 12:35:00
7:55 AM,28.0,17.4,64,30.25,10.0,WNW,8.1,-,N/A,,Clear,290,2013-04-02 12:55:00
8:15 AM,28.8,17.2,62,30.25,10.0,West,9.2,-,N/A,,Clear,280,2013-04-02 13:15:00
8:35 AM,29.7,17.1,59,30.25,10.0,WNW,9.2,-,N/A,,Clear,290,2013-04-02 13:35:00
8:55 AM,30.2,16.3,56,30.25,10.0,NW,5.8,-,N/A,,Clear,310,2013-04-02 13:55:00
9:15 AM,30.7,15.8,54,30.25,10.0,WNW,8.1,-,N/A,,Clear,300,2013-04-02 14:15:00
9:35 AM,31.8,15.8,52,30.25,10.0,NW,5.8,-,N/A,,Clear,320,2013-04-02 14:35:00
9:55 AM,32.4,16.2,51,30.25,10.0,WNW,9.2,-,N/A,,Clear,290,2013-04-02 14:55:00
10:15 AM,32.9,14.9,48,30.25,10.0,WNW,10.4,-,N/A,,Clear,300,2013-04-02 15:15:00
10:35 AM,34.3,16.3,48,30.25,10.0,West,8.1,-,N/A,,Clear,270,2013-04-02 15:35:00
10:55 AM,34.9,13.8,42,30.25,10.0,West,6.9,-,N/A,,Clear,280,2013-04-02 15:55:00
11:15 AM,36.0,14.0,41,30.25,10.0,West,8.1,-,N/A,,Clear,280,2013-04-02 16:15:00
11:35 AM,37.0,14.7,40,30.25,10.0,WNW,10.4,-,N/A,,Clear,290,2013-04-02 16:35:00
11:55 AM,36.7,12.4,37,30.25,10.0,West,10.4,17.3,N/A,,Clear,280,2013-04-02 16:55:00
12:15 PM,37.8,10.6,33,30.24,10.0,West,13.8,18.4,N/A,,Clear,280,2013-04-02 17:15:00
12:35 PM,38.1,11.3,33,30.24,10.0,NW,13.8,18.4,N/A,,Clear,310,2013-04-02 17:35:00
12:55 PM,37.9,10.8,33,30.23,10.0,West,12.7,18.4,N/A,,Clear,280,2013-04-02 17:55:00
1:15 PM,38.3,12.6,35,30.23,10.0,WNW,11.5,-,N/A,,Clear,300,2013-04-02 18:15:00
1:35 PM,39.6,11.3,31,30.23,10.0,West,8.1,-,N/A,,Clear,260,2013-04-02 18:35:00
1:55 PM,39.2,11.1,32,30.23,10.0,NW,9.2,17.3,N/A,,Scattered Clouds,310,2013-04-02 18:55:00
2:15 PM,39.9,14.0,35,30.22,10.0,NW,17.3,21.9,N/A,,Scattered Clouds,310,2013-04-02 19:15:00
2:35 PM,39.4,12.4,33,30.22,10.0,WNW,9.2,20.7,N/A,,Scattered Clouds,290,2013-04-02 19:35:00
2:55 PM,41.0,10.8,29,30.22,10.0,West,12.7,20.7,N/A,,Mostly Cloudy,270,2013-04-02 19:55:00
3:15 PM,40.1,11.1,31,30.22,10.0,NW,12.7,17.3,N/A,,Scattered Clouds,310,2013-04-02 20:15:00
3:35 PM,39.9,8.4,27,30.22,10.0,NW,11.5,-,N/A,,Clear,320,2013-04-02 20:35:00
3:55 PM,41.0,12.9,32,30.22,10.0,NW,13.8,18.4,N/A,,Clear,320,2013-04-02 20:55:00
4:15 PM,40.6,10.9,30,30.22,10.0,NW,15.0,-,N/A,,Clear,310,2013-04-02 21:15:00
4:35 PM,40.1,10.2,29,30.22,10.0,NW,8.1,11.5,N/A,,Scattered Clouds,310,2013-04-02 21:35:00
4:55 PM,39.9,11.7,31,30.23,10.0,NW,13.8,20.7,N/A,,Scattered Clouds,320,2013-04-02 21:55:00
5:15 PM,39.2,11.3,32,30.23,10.0,NW,11.5,19.6,N/A,,Clear,320,2013-04-02 22:15:00
5:35 PM,39.2,11.1,32,30.24,10.0,NW,12.7,17.3,N/A,,Clear,310,2013-04-02 22:35:00
5:55 PM,38.8,14.9,38,30.24,10.0,North,12.7,16.1,N/A,,Clear,350,2013-04-02 22:55:00
6:15 PM,37.9,13.3,36,30.25,10.0,NNW,12.7,-,N/A,,Clear,340,2013-04-02 23:15:00
6:35 PM,37.0,10.8,34,30.26,10.0,NW,12.7,-,N/A,,Clear,320,2013-04-02 23:35:00
6:55 PM,36.1,12.9,39,30.26,10.0,NNW,10.4,-,N/A,,Clear,330,2013-04-02 23:55:00
7:15 PM,34.9,13.5,41,30.26,10.0,NW,8.1,-,N/A,,Clear,310,2013-04-03 00:15:00
7:35 PM,33.8,14.2,45,30.26,10.0,NW,6.9,-,N/A,,Clear,310,2013-04-03 00:35:00
7:55 PM,33.1,15.3,48,30.27,10.0,NW,5.8,-,N/A,,Clear,310,2013-04-03 00:55:00
8:15 PM,32.4,15.3,49,30.28,10.0,NW,5.8,-,N/A,,Clear,320,2013-04-03 01:15:00
8:35 PM,32.7,15.4,49,30.28,10.0,NW,6.9,-,N/A,,Clear,320,2013-04-03 01:35:00
8:55 PM,32.0,16.0,52,30.29,10.0,NW,5.8,-,N/A,,Clear,310,2013-04-03 01:55:00
9:15 PM,32.0,16.0,52,30.29,10.0,NW,6.9,-,N/A,,Clear,320,2013-04-03 02:15:00
9:35 PM,32.0,15.4,51,30.30,10.0,NW,5.8,-,N/A,,Clear,310,2013-04-03 02:35:00
9:55 PM,31.6,16.0,52,30.30,10.0,NW,5.8,-,N/A,,Clear,320,2013-04-03 02:55:00
10:15 PM,31.6,15.4,51,30.31,10.0,NW,5.8,-,N/A,,Clear,320,2013-04-03 03:15:00
10:35 PM,31.1,16.9,56,30.31,10.0,NW,4.6,-,N/A,,Clear,320,2013-04-03 03:35:00
10:55 PM,30.7,16.9,56,30.31,10.0,NW,4.6,-,N/A,,Clear,310,2013-04-03 03:55:00
11:35 PM,30.2,16.7,57,30.31,10.0,NW,5.8,-,N/A,,Clear,320,2013-04-03 04:35:00
11:55 PM,30.4,16.5,56,30.32,10.0,NW,5.8,-,N/A,,Clear,320,2013-04-03 04:55:00